Zurück zum Katalog

COSMOS 2491 DEB

AktivPO
NORAD 57560·DEBRIS·🇷🇺 Russia

Gestartet Dec 25, 2013 von Plesetsk Cosmodrome

Loading…

Nächste Überflüge (nächste 24 Stunden)

TLE

VeraltetSource: Space-Track

Epoche: Aug 29, 2026, 08:09 UTC

1 57560U 13076AX  26241.34019890  .00001646  00000-0  99425-2 0  9997
2 57560  82.4838 107.4382 0037273 348.0111  12.0085 12.55858679151372

Verfolge COSMOS 2491 DEB in Echtzeit mit AllMySat

Download on the App Store